This is the latest recevied weather packets stored in our database for station/object HOWARD. If no packets are shown the sender has not sent any weather packets the latest 1 day(s).
| Time | Temp. | Humidity | Pressure | Rain* | Wind** | Luminosity | Snow |
|---|---|---|---|---|---|---|---|
| 1778030509 | 6.67° C | 70% | 1010.5 hPa | 0 mm | - | - | - |
| 1778029909 | 7.22° C | 69% | 1011.2 hPa | 0 mm | - | - | - |
| 1778029356 | 7.22° C | 69% | 1011 hPa | 0 mm | - | - | - |
| 1778028108 | 7.22° C | 65% | 1010.9 hPa | 0 mm | - | - | - |
| 1778027509 | 7.78° C | 65% | 1010.9 hPa | 0 mm | - | - | - |
| 1778026908 | 7.22° C | 65% | 1010.8 hPa | 0 mm | - | - | - |
| 1778020908 | 7.78° C | 61% | 1010.9 hPa | 0 mm | - | - | - |
| 1778019708 | 8.89° C | 58% | 1011 hPa | 0 mm | - | - | - |
| 1778018509 | 8.33° C | 59% | 1011.1 hPa | 0 mm | - | - | - |
| 1778017309 | 8.33° C | 58% | 1011.1 hPa | 0 mm | - | - | - |
| 1778013109 | 8.89° C | 59% | 1011.1 hPa | 0 mm | - | - | - |
| 1778009509 | 7.78° C | 61% | 1011.1 hPa | 0 mm | - | - | - |
| 1778008908 | 7.22° C | 63% | 1011.1 hPa | 0 mm | - | - | - |
| 1778007710 | 7.22° C | 62% | 1011.1 hPa | 0 mm | - | - | - |
| 1778006547 | 7.22° C | 61% | 1011 hPa | 0 mm | - | - | - |
| 1778006508 | 7.22° C | 61% | 1011 hPa | 0 mm | - | - | - |
| 1778004709 | 7.22° C | 59% | 1010.8 hPa | 0 mm | - | - | - |
| 1778001108 | 7.22° C | 57% | 1010.3 hPa | 0 mm | - | - | - |
| 1778000508 | 7.22° C | 55% | 1010.2 hPa | 0 mm | - | - | - |
| 1777998708 | 6.67° C | 57% | 1010 hPa | 0 mm | - | - | - |
| 1777998108 | 6.67° C | 56% | 1009.9 hPa | 0 mm | - | - | - |
| 1777995708 | 6.67° C | 53% | 1009.6 hPa | 0 mm | - | - | - |
| 1777994508 | 6.11° C | 51% | 1009.5 hPa | 0 mm | - | - | - |
| 1777993908 | 6.67° C | 52% | 1009.5 hPa | 0 mm | - | - | - |
| 1777992708 | 6.11° C | 55% | 1009.1 hPa | 0 mm | - | - | - |
* Rain latest hour (hover to see other rain measurements)
** Current wind speed in m/s (hover to see current wind gust speed)